"Pseudo-MPEC" for C14GHA2

Created 2019 Oct 21 2:07:07 UT using Find_Orb

Click here for an explanation of pseudo-MPECs

 
 Astrometry: 
     C14GHA2  C2019 10 07.43886 06 29 06.74 +41 39 24.7    ~A7Cb 20.3 GVNEOCPG96
     C14GHA2  C2019 10 07.44408 06 29 07.05 +41 39 22.9    ~A7Cb 21.1 GVNEOCPG96
     C14GHA2  C2019 10 07.44930 06 29 07.31 +41 39 21.8    ~A7Cb 21.0 GVNEOCPG96
     C14GHA2  C2019 10 07.45451 06 29 07.56 +41 39 20.4    ~A7Cb 20.9 GVNEOCPG96

Station data:
(G96) Mt. Lemmon Survey  (N32.442754 W110.788720)  US/Arizona.  Observers T.
   A. Pruyne, B. M. Africano, E. J. Christensen, G. A. Farneth, D. C. Fuls,
   A. R. Gibbs, A. D. Grauer, H. Groeller, J. A. Johnson, R. A. Kowalski, S.
   M. Larson, G. J. Leonard, D. Rankin, R. L. Seaman, F. C. Shelly. 1.5-m
   reflector + 10K CCD.

Orbital elements:  C14GHA2
   Perihelion 2019 Jun 22.339168 +/- 114 TT =  8:08:24 (JD 2458656.839168)
Epoch 2019 Oct  7.0 TT = JDT 2458763.5   Earth MOID: 0.4904   AutoNEOCP
M  18.56722888 +/- 90               (J2000 ecliptic)
n   0.17407729 +/- 0.44             Peri.   71.26033 +/- 90
a   3.17668852 +/- 5.35             Node   276.20598 +/- 31
e   0.5816322 +/- 0.226             Incl.   22.67583 +/- 40
P   5.66                   H 17.9   G  0.15   U 12.2  SR
q 1.32902408 +/- 0.79    Q 5.02435295 +/- 19.7
From 4 observations 2019 Oct. 7 (22.5 min); mean residual 0".16
Residuals in arcseconds: 
191007 G96  .19-  .15+    191007 G96  .10+  .05+    
191007 G96  .23+  .25-    191007 G96  .14-  .05+    

Ephemerides (geocentric):
Date (UTC) HH   RA              Dec         delta   r     elong  mag " sig PA
---- -- -- --  -------------   -----------  ------ ------ -----  --- ---- ---
2019 10 21 02  06 36 36.329   +40 31 01.89  1.2744 1.8540 108.9 21.1  54d  33
2019 10 21 03  06 36 36.768   +40 30 48.48  1.2742 1.8543 108.9 21.1  54d  33
2019 10 21 04  06 36 37.200   +40 30 35.06  1.2741 1.8546 109.0 21.1  54d  33
2019 10 21 05  06 36 37.628   +40 30 21.64  1.2739 1.8549 109.0 21.1  54d  33
2019 10 21 06  06 36 38.049   +40 30 08.21  1.2737 1.8552 109.1 21.1  54d  33
2019 10 21 07  06 36 38.464   +40 29 54.78  1.2736 1.8554 109.1 21.1  54d  33
2019 10 21 08  06 36 38.874   +40 29 41.34  1.2734 1.8557 109.1 21.1  54d  33
2019 10 21 09  06 36 39.278   +40 29 27.89  1.2732 1.8560 109.2 21.1  54d  33
2019 10 21 10  06 36 39.676   +40 29 14.44  1.2731 1.8563 109.2 21.1  54d  33
2019 10 21 11  06 36 40.068   +40 29 00.98  1.2729 1.8566 109.2 21.1  54d  33
2019 10 21 12  06 36 40.454   +40 28 47.51  1.2728 1.8568 109.3 21.1  54d  33
2019 10 21 13  06 36 40.835   +40 28 34.04  1.2726 1.8571 109.3 21.1  54d  33
2019 10 21 14  06 36 41.210   +40 28 20.56  1.2724 1.8574 109.4 21.1  54d  33
2019 10 21 15  06 36 41.578   +40 28 07.07  1.2723 1.8577 109.4 21.1  54d  33
2019 10 21 16  06 36 41.941   +40 27 53.58  1.2721 1.8580 109.4 21.1  54d  33
2019 10 21 17  06 36 42.299   +40 27 40.09  1.2719 1.8582 109.5 21.1  54d  33
2019 10 21 18  06 36 42.650   +40 27 26.58  1.2718 1.8585 109.5 21.1  54d  33
2019 10 21 19  06 36 42.995   +40 27 13.07  1.2716 1.8588 109.5 21.1  54d  33
2019 10 21 20  06 36 43.335   +40 26 59.55  1.2714 1.8591 109.6 21.1  54d  33
2019 10 21 21  06 36 43.669   +40 26 46.03  1.2713 1.8594 109.6 21.1  54d  33
2019 10 21 22  06 36 43.997   +40 26 32.50  1.2711 1.8596 109.7 21.1  54d  33
2019 10 21 23  06 36 44.319   +40 26 18.97  1.2710 1.8599 109.7 21.1  54d  33
2019 10 22 00  06 36 44.635   +40 26 05.42  1.2708 1.8602 109.7 21.1  55d  33
2019 10 22 01  06 36 44.946   +40 25 51.87  1.2706 1.8605 109.8 21.1  55d  34
2019 10 22 02  06 36 45.250   +40 25 38.32  1.2705 1.8608 109.8 21.1  55d  34
2019 10 22 03  06 36 45.549   +40 25 24.76  1.2703 1.8610 109.9 21.1  55d  34
2019 10 22 04  06 36 45.842   +40 25 11.19  1.2701 1.8613 109.9 21.1  55d  34
2019 10 22 05  06 36 46.129   +40 24 57.62  1.2700 1.8616 109.9 21.1  55d  34
2019 10 22 06  06 36 46.410   +40 24 44.03  1.2698 1.8619 110.0 21.1  55d  34
2019 10 22 07  06 36 46.686   +40 24 30.45  1.2696 1.8622 110.0 21.1  56d  34
2019 10 22 08  06 36 46.955   +40 24 16.85  1.2695 1.8624 110.1 21.1  56d  34
2019 10 22 09  06 36 47.219   +40 24 03.25  1.2693 1.8627 110.1 21.1  56d  34
2019 10 22 10  06 36 47.477   +40 23 49.65  1.2692 1.8630 110.1 21.1  56d  34
2019 10 22 11  06 36 47.729   +40 23 36.03  1.2690 1.8633 110.2 21.1  56d  34
2019 10 22 12  06 36 47.975   +40 23 22.41  1.2688 1.8636 110.2 21.1  56d  34
2019 10 22 13  06 36 48.215   +40 23 08.78  1.2687 1.8638 110.2 21.1  56d  34
2019 10 22 14  06 36 48.450   +40 22 55.15  1.2685 1.8641 110.3 21.1  56d  34
2019 10 22 15  06 36 48.678   +40 22 41.51  1.2683 1.8644 110.3 21.1  57d  34
2019 10 22 16  06 36 48.901   +40 22 27.86  1.2682 1.8647 110.4 21.1  57d  34
2019 10 22 17  06 36 49.118   +40 22 14.21  1.2680 1.8650 110.4 21.1  57d  34
2019 10 22 18  06 36 49.329   +40 22 00.55  1.2679 1.8652 110.4 21.1  57d  34
2019 10 22 19  06 36 49.534   +40 21 46.88  1.2677 1.8655 110.5 21.1  57d  34
2019 10 22 20  06 36 49.733   +40 21 33.21  1.2675 1.8658 110.5 21.1  57d  34
2019 10 22 21  06 36 49.927   +40 21 19.53  1.2674 1.8661 110.6 21.1  57d  34
2019 10 22 22  06 36 50.114   +40 21 05.84  1.2672 1.8664 110.6 21.1  57d  34
2019 10 22 23  06 36 50.296   +40 20 52.15  1.2670 1.8666 110.6 21.1  57d  34
2019 10 23 00  06 36 50.472   +40 20 38.45  1.2669 1.8669 110.7 21.1  57d  34
2019 10 23 01  06 36 50.642   +40 20 24.74  1.2667 1.8672 110.7 21.1  57d  34